weather.gov     
National Weather Service

Terminal Aerodrome Forecast
NWS Homepage
This page is being discontinued on March 12, 2014.
The same data is available at this site. Please update your bookmarks.
Thank you, and we apologize for the inconvenience.
Please send an email to SR-SRH.Webmaster@noaa.gov with any concerns.


Current Version
Previous Version:    01  02  03  04  05  06  07  08  09  10  11  12  13  14  
[Printable]
800
FTUS41 KCAR 021100
TAFPQI
TAF
KPQI 021139Z 0212/0312 18006KT P6SM OVC006
      TEMPO 0212/0214 5SM BR
     FM021400 18006KT P6SM OVC010
     FM021600 18010KT P6SM BKN040
     FM022100 18010KT P6SM VCSH BKN040
     FM030300 20010KT 3SM -SHRA BR OVC010
     FM030600 22010KT 2SM -SHRA BR OVC005
     FM031000 27008KT 3SM -SHRA BR OVC005
      AMD LTD TO CLD VIS AND WIND=


U.S. Dept. of Commerce
NOAA National Weather Service
1325 East West Highway
Silver Spring, MD 20910
E-mail: w-nws.webmaster@noaa.gov
Page last modified: May 16, 2007
NATIONAL WEATHER SERVICE: for Safety, for Work, for Fun - FOR LIFE